Palos Park, Illinois, United States (60464)
Lat: 41.67N, Lon: 87.83W
Wx Zone: ILZ014
Local Info
Past Weather Observations for Sunday, February 7, 2016

NOTE: This archive is for the closest National Weather Service station to Palos Park. Information may differ from the station used for current weather conditions.

Click here for Long-term Archive

Time Weather Temperature Dewpoint Humidity Pressure Winds Precip Visibility
23:53
Partly Cloudy
34°F / 1°C 27°F / -3°C 75% 29.68 in
(1005 mb)
SW 8.1 mph
(SW 13 kph)
- 10SM
22:53
Partly Cloudy
36°F / 2°C 27°F / -3°C 70% 29.71 in
(1006 mb)
SSW 9.2 mph
(SSW 15 kph)
- 10SM
21:53
Partly Cloudy
37°F / 3°C 27°F / -3°C 65% 29.74 in
(1007 mb)
SSW 8.1 mph
(SSW 13 kph)
- 10SM
20:53
Partly Cloudy
37°F / 3°C 27°F / -3°C 65% 29.74 in
(1007 mb)
SSW 11.5 mph
(SSW 19 kph)
- 10SM
19:53
Mostly Cloudy
39°F / 4°C 27°F / -3°C 61% 29.74 in
(1007 mb)
W 11.5 mph
(W 19 kph)
- 10SM
18:53
Mostly Cloudy
41°F / 5°C 27°F / -3°C 57% 29.77 in
(1008 mb)
SSW 13.8 mph
(SSW 22 kph)
- 10SM
17:53
Partly Cloudy
43°F / 6°C 30°F / -1°C 61% 29.77 in
(1008 mb)
SSW 12.7 mph
(SSW 20 kph)
- 10SM
16:53
Partly Cloudy
43°F / 6°C 30°F / -1°C 61% 29.74 in
(1007 mb)
SSW 13.8 mph
(SSW 22 kph)
- 10SM
15:53
Mostly Cloudy
45°F / 7°C 30°F / -1°C 57% 29.74 in
(1007 mb)
SSW 18.4 mph
(SSW 30 kph)
- 10SM
14:53
Mostly Cloudy
45°F / 7°C 30°F / -1°C 57% 29.74 in
(1007 mb)
SSW 18.4 mph
(SSW 30 kph)
- 10SM
13:53
Mostly Cloudy
46°F / 8°C 30°F / -1°C 53% 29.74 in
(1007 mb)
SSW 21.9 mph
(SSW 35 kph)
- 10SM
12:53
Mostly Cloudy
45°F / 7°C 30°F / -1°C 57% 29.74 in
(1007 mb)
SW 17.3 mph
(SW 28 kph)
- 10SM
11:53
Mostly Cloudy
45°F / 7°C 28°F / -2°C 53% 29.77 in
(1008 mb)
SW 15 mph
(SW 24 kph)
- 10SM
10:53
Mostly Cloudy
45°F / 7°C 28°F / -2°C 53% 29.8 in
(1009 mb)
SSW 13.8 mph
(SSW 22 kph)
- 10SM
09:53
Mostly Cloudy
43°F / 6°C 28°F / -2°C 57% 29.8 in
(1009 mb)
SW 16.1 mph
(SW 26 kph)
- 10SM
08:53
Mostly Cloudy
41°F / 5°C 28°F / -2°C 61% 29.83 in
(1010 mb)
SW 15 mph
(SW 24 kph)
- 10SM
07:53
Mostly Cloudy
37°F / 3°C 28°F / -2°C 70% 29.86 in
(1011 mb)
SSE 11.5 mph
(SSE 19 kph)
- 10SM
06:53
Mostly Cloudy
39°F / 4°C 28°F / -2°C 65% 29.89 in
(1012 mb)
SSE 15 mph
(SSE 24 kph)
- 10SM
05:53
Mostly Cloudy
39°F / 4°C 28°F / -2°C 65% 29.89 in
(1012 mb)
SW 11.5 mph
(SW 19 kph)
- 10SM
04:53
Mostly Cloudy
39°F / 4°C 28°F / -2°C 65% 29.92 in
(1013 mb)
SSE 11.5 mph
(SSE 19 kph)
- 10SM
03:53
Mostly Cloudy
37°F / 3°C 28°F / -2°C 70% 29.95 in
(1014 mb)
SSE 9.2 mph
(SSE 15 kph)
- 10SM
02:53
Overcast
37°F / 3°C 28°F / -2°C 70% 30.01 in
(1016 mb)
S 8.1 mph
(S 13 kph)
- 10SM
01:53
Mostly Cloudy
36°F / 2°C 28°F / -2°C 75% 30.04 in
(1017 mb)
SSE 8.1 mph
(SSE 13 kph)
- 10SM
00:53
Mostly Cloudy
36°F / 2°C 28°F / -2°C 75% 30.04 in
(1017 mb)
SSE 6.9 mph
(SSE 11 kph)
- 10SM
Time Weather Temperature Dewpoint Humidity Pressure Winds Precip Visibility


Weather for websites

WeatherForYou.com, LLC is not responsible for any damages or problems caused by this service. Current weather conditions are obtained from the closest station including government and personal stations which may have varying degrees of accuracy. Weather forecasts are derived from the NOAA NDFD. Like all things, this site belongs to Jesus Christ... He just trusts us to maintain it. If you have any questions or comments email webmaster@weatherforyou.com

Copyright © 2016, WeatherForYou.com LLC. All rights reserved.